User: anonymous   Login
Location: Bazinghen
(50.8246°N, 1.6616°E)
Time: 13:53:37
(UTC+00:00)
Language:

Cosmos 1328 - Orbit

View from above orbital plane
View from above orbital plane
View from above satellite
View from above satellite

Ground track
Ground track

The orbit data is extracted from the following two-line orbital elements,

1 12987U 81117A   20191.61132357 -.00000122 +00000-0 -98411-5 0  9991
2 12987 082.5187 231.8479 0005104 085.9760 274.2051 15.08116225100754
Epoch (UTC): 09 July 2020 14:40:18
Eccentricity: 0.0005104
inclination: 82.5187°
perigee height: 538 km
apogee height: 545 km
right ascension of ascending node: 231.8479°
argument of perigee: 85.9760°
revolutions per day: 15.08116225
mean anomaly at epoch: 274.2051°
orbit number at epoch: 10075

The dashed part of the orbit path shows where the satellite is in the earth's shadow,  

DLR